"Pseudo-MPEC" for A10boIy

Created 2019 Jan 12 21:18:03 UT using Find_Orb

Click here for an explanation of pseudo-MPECs

 
 Astrometry: 
     A10boIy  C2019 01 12i0;Astrometry979N,e!@cRo7lredacted;\DTNg(we^p^-EW[hhT08
     A10boIy  C2019 01 12P[Yiclick0?Te_q=.cdjasN!p:_here@Rl?/M.wXC0G-OVMhMjwjT08
     A10boIy  C2019 01 12.AR'nfor(dtA+L3J\:23r0Dt=M*jexplanation15mwhTX]4:!/[T08

Station data:
(T08) ATLAS-MLO, Mauna Loa  (N19.535772 W155.576400)  US/Hawaii.

Orbital elements:  A10boIy
   Perigee 2019 Jan 9.557798 +/- 29.3 TT = 13:23:13 (JD 2458493.057798)
Epoch 2019 Jan 12.0 TT = JDT 2458495.5                        AutoNEOCP
M  28.43872991 +/- 30               (J2000 equator)
n  11.64470645 +/- 0.38             Peri.  135.64094 +/- 60
a416087.315 +/- 4.38e+7             Node   218.34146 +/- 55
e   0.5133319 +/- 0.203             Incl.   46.68844 +/- 15
P  30.91d                  H 27.9   G  0.15   U 12.1  SR
q 202496.389 +/- 1.5e+7    Q 629678.240 +/- 2.95e+8
From 3 observations 2019 Jan. 12 (20.7 min); mean residual 0".46
Residuals in arcseconds: 
190112 T08  .56+  .14+    190112 T08  .88-  .21-    190112 T08  .32+  .07+    

Ephemerides (geocentric):
Date (UTC) HH   RA              Dec         delta   r     elong  mag " sig PA
---- -- -- --  -------------   -----------  ------ ------ -----  --- ---- ---
2019 01 12 21  05 21 23.507   -35 21 42.91  327016 .98440 114.8 16.8 983'  31
2019 01 12 22  05 24 10.251   -35 43 17.83  329098 .98441 114.8 16.8  17d  30
2019 01 12 23  05 26 56.386   -36 04 22.14  331177 .98442 114.8 16.9  18d  27
2019 01 13 00  05 29 41.916   -36 24 56.42  333252 .98443 114.8 16.9  19d  21
2019 01 13 01  05 32 26.844   -36 45 01.19  335323 .98443 114.8 16.9  19d  16
2019 01 13 02  05 35 11.170   -37 04 37.02  337389 .98444 114.7 16.9  20d  12
2019 01 13 03  05 37 54.898   -37 23 44.41  339452 .98445 114.7 16.9  21d   9
2019 01 13 04  05 40 38.027   -37 42 23.89  341509 .98445 114.7 16.9  22d   7
2019 01 13 05  05 43 20.558   -38 00 35.98  343562 .98446 114.7 16.9  22d   6
2019 01 13 06  05 46 02.491   -38 18 21.16  345609 .98447 114.7 17.0  23d   4
2019 01 13 07  05 48 43.827   -38 35 39.93  347652 .98448 114.7 17.0  24d   2
2019 01 13 08  05 51 24.564   -38 52 32.78  349689 .98448 114.7 17.0  25d   0
2019 01 13 09  05 54 04.701   -39 09 00.17  351720 .98449 114.6 17.0  26d 178
2019 01 13 10  05 56 44.237   -39 25 02.58  353746 .98450 114.6 17.0  26d 176
2019 01 13 11  05 59 23.171   -39 40 40.45  355766 .98450 114.6 17.0  27d 174
2019 01 13 12  06 02 01.500   -39 55 54.24  357780 .98451 114.6 17.0  27d 173
2019 01 13 13  06 04 39.223   -40 10 44.38  359788 .98452 114.6 17.0  28d 171
2019 01 13 14  06 07 16.337   -40 25 11.30  361790 .98452 114.5 17.1  28d 170
2019 01 13 15  06 09 52.839   -40 39 15.44  363786 .98453 114.5 17.1  28d 170
2019 01 13 16  06 12 28.727   -40 52 57.20  365775 .98453 114.5 17.1  29d 169
2019 01 13 17  06 15 03.998   -41 06 16.99  367758 .98454 114.4 17.1  29d 168
2019 01 13 18  06 17 38.649   -41 19 15.21  369734 .98455 114.4 17.1  29d 168
2019 01 13 19  06 20 12.676   -41 31 52.26  371703 .98455 114.4 17.1  29d 168
2019 01 13 20  06 22 46.077   -41 44 08.52  373666 .98456 114.3 17.1  29d 167
2019 01 13 21  06 25 18.847   -41 56 04.36  375621 .98456 114.3 17.1  29d 167
2019 01 13 22  06 27 50.985   -42 07 40.17  377570 .98457 114.3 17.2  30d 167
2019 01 13 23  06 30 22.484   -42 18 56.31  379512 .98458 114.2 17.2  30d 166
2019 01 14 00  06 32 53.344   -42 29 53.13  381446 .98458 114.2 17.2  30d 166
2019 01 14 01  06 35 23.558   -42 40 30.98  383373 .98459 114.2 17.2  30d 166
2019 01 14 02  06 37 53.125   -42 50 50.22  385293 .98459 114.1 17.2  30d 166
2019 01 14 03  06 40 22.040   -43 00 51.17  387206 .98460 114.1 17.2  30d 166
2019 01 14 04  06 42 50.299   -43 10 34.18  389111 .98460 114.0 17.2  30d 165
2019 01 14 05  06 45 17.900   -43 19 59.57  391009 .98461 114.0 17.2  30d 165
2019 01 14 06  06 47 44.837   -43 29 07.66  392899 .98461 114.0 17.3  30d 165
2019 01 14 07  06 50 11.108   -43 37 58.76  394782 .98462 113.9 17.3  31d 165
2019 01 14 08  06 52 36.710   -43 46 33.18  396657 .98462 113.9 17.3  31d 165
2019 01 14 09  06 55 01.638   -43 54 51.24  398525 .98463 113.8 17.3  31d 165
2019 01 14 10  06 57 25.889   -44 02 53.22  400385 .98464 113.8 17.3  31d 164
2019 01 14 11  06 59 49.459   -44 10 39.42  402237 .98464 113.7 17.3  31d 164
2019 01 14 12  07 02 12.346   -44 18 10.12  404081 .98465 113.7 17.3  31d 164
2019 01 14 13  07 04 34.547   -44 25 25.62  405917 .98465 113.7 17.3  31d 164
2019 01 14 14  07 06 56.057   -44 32 26.18  407746 .98466 113.6 17.3  31d 164
2019 01 14 15  07 09 16.875   -44 39 12.08  409566 .98466 113.6 17.4  31d 164
2019 01 14 16  07 11 36.997   -44 45 43.59  411379 .98467 113.5 17.4  31d 164
2019 01 14 17  07 13 56.420   -44 52 00.97  413184 .98467 113.5 17.4  31d 164
2019 01 14 18  07 16 15.142   -44 58 04.48  414981 .98468 113.4 17.4  31d 164
2019 01 14 19  07 18 33.161   -45 03 54.36  416769 .98468 113.4 17.4  31d 164
2019 01 14 20  07 20 50.473   -45 09 30.88  418550 .98468 113.3 17.4  31d 164